Regional Weather Roundup
Issued by NWS

Home | Current Version | Previous Version | Text Only | Print | Product List | Glossary Off
Versions: 1 2 3 4 5 6 7 8 9 10 11 12 13 14 15 16 17 18 19 20 21 22 23 24 25 26 27 28 29 30 31 32 33 34 35 36 37 38 39 40 41 42 43 44 45 46 47 48 49 50

000
ASUS45 KBOI 190710
RWRID

IDAHO REGIONAL WEATHER ROUNDUP
NATIONAL WEATHER SERVICE BOISE ID
1200 AM MST SUN NOV 19 2017

NOTE: "FAIR" INDICATES FEW OR NO CLOUDS BELOW 12000 FEET
WITH NO SIGNIFICANT WEATHER AND/OR OBSTRUCTIONS TO VISIBILITY

IDZ012-014-190800-
SOUTHWEST IDAHO


CITY           SKY/WX    TMP DP  RH WIND       PRES   REMARKS
BOISE          MOCLDY    33  22  63 S10       30.26F WCI  25
CALDWELL       MOCLDY    36  24  62 E8        30.27F WCI  30
MOUNTAIN HOME  PTCLDY    31  26  79 SE9       30.27F WCI  23
$$

IDZ016-017-190800-
SOUTHCENTRAL IDAHO


CITY           SKY/WX    TMP DP  RH WIND       PRES   REMARKS
BURLEY         PTCLDY    27  23  85 CALM      30.28F
JEROME         PTCLDY    29  24  82 NE16      30.27F WCI  17
TWIN FALLS     PTCLDY    25  20  81 CALM      30.27S
$$

IDZ019>023-190800-
SOUTHEAST IDAHO


CITY           SKY/WX    TMP DP  RH WIND       PRES   REMARKS
IDAHO FALLS    CLOUDY    23  21  92 NW3       30.34S
POCATELLO      CLOUDY    27  21  78 W5        30.32S WCI  22
REXBURG        CLOUDY    25  21  85 N3        30.33F
$$

IDZ006-010-011-018-031-032-190800-
CENTRAL IDAHO MOUNTAINS


CITY           SKY/WX    TMP DP  RH WIND       PRES   REMARKS
MCCALL         CLOUDY    21  18  88 CALM      30.21F
HAILEY         MOCLDY    23  18  80 NW9       30.32S WCI  13
STANLEY          N/A      6   2  83 CALM      30.26S
SALMON         CLOUDY    22  18  85 CALM      30.28S
CHALLIS        PTCLDY    20  15  81 SW5       30.27F WCI  13
$$

IDZ002-004-006-007-026-190800-
NORTHERN IDAHO


CITY           SKY/WX    TMP DP  RH WIND       PRES   REMARKS
LEWISTON       CLOUDY    42  27  55 S6        30.17S
LOWELL           N/A     32  31  96 CALM      30.28R
COEUR D`ALENE  MOCLDY    27  25  92 E3        30.16S
MULLAN PASS    MOCLDY    23  18  81 S8        30.07S WCI  14
$$



USA.gov is the U.S. government's official web portal to all federal, state and local government web resources and services.